sat.trackr.live / text

‹ back to catalog

STARLINK-5340

NORAD 56506 · 2023-065D

PAYLOAD ACTIVE UNKNOWN

§ Identity

Operator
Country
US
Launch date
2023-05-14
Launch site
AFETR
Launch vehicle
Mass (kg)
RCS (m²)

Purposes: comms

External: N2YO · Heavens-Above · Gunter

§ Orbital elements

Epoch: 2026-09-20T01:12:07.439040Z

Period
94.27 min
Inclination
43.0031°
Eccentricity
0.0001407
Mean motion
15.27574777 rev/d
Perigee alt
482.1 km
Apogee alt
484.0 km
Semi-major
6,861.2 km
B*
1.4230e-5
RAAN
183.6170°
Arg perigee
268.7429°
Mean anomaly
91.3261°
Rev number
18,645

§ Raw data

STARLINK-53401 56506U 23065D   26263.05008610  .00000129  00000+0  14230-4 0  99922 56506  43.0031 183.6170 0001407 268.7429  91.3261 15.27574777186459

JSON: /api/v1/satellites/56506 · /tle

For live sub-satellite position, see the globe view (requires WebGL).

§ Visibility from observer

Set your observer location to see the next 7 days of passes ≥ 10°. The values pass through the URL so the page stays shareable.

No JS? Fill the form by hand. The geolocation button needs JavaScript.